sat.trackr.live / text

‹ back to catalog

STARLINK-34681

NORAD 66438 · 2025-259S

PAYLOAD ACTIVE UNKNOWN

§ Identity

Operator
Country
US
Launch date
2025-11-11
Launch site
AFETR
Launch vehicle
Mass (kg)
RCS (m²)

Purposes: comms

External: N2YO · Heavens-Above · Gunter

§ Orbital elements

Epoch: 2026-09-20T16:37:02.703360Z

Period
94.27 min
Inclination
43.0015°
Eccentricity
0.0001427
Mean motion
15.27578985 rev/d
Perigee alt
482.1 km
Apogee alt
484.0 km
Semi-major
6,861.2 km
B*
3.3250e-4
RAAN
253.1396°
Arg perigee
267.6856°
Mean anomaly
92.3832°
Rev number
4,920

§ Raw data

STARLINK-346811 66438U 25259S   26263.69239240  .00008898  00000+0  33250-3 0  99922 66438  43.0015 253.1396 0001427 267.6856  92.3832 15.27578985 49204

JSON: /api/v1/satellites/66438 · /tle

For live sub-satellite position, see the globe view (requires WebGL).

§ Visibility from observer

Set your observer location to see the next 7 days of passes ≥ 10°. The values pass through the URL so the page stays shareable.

No JS? Fill the form by hand. The geolocation button needs JavaScript.